DW4028 Weather Reports


time (UTC)temp
C
wind
direction
speed
KPH
gust
KPH
rain 1hr
cm
rain 24hr
cm
rain mn
cm
humidity
%
barometer
mb
20260507143013 13 332 6.4 12.9 0.00 0.64 0.48 70 1008.2
20260507141512 12 35 3.2 6.4 0.00 0.64 0.48 74 1008.4
20260507140010 12 65 4.8 9.7 0.00 0.64 0.48 79 1008.5
20260507134509 12 29 3.2 8.0 0.00 0.64 0.48 80 1008.5
20260507133012 11 360 1.6 4.8 0.00 0.64 0.48 87 1008.5
20260507131510 10 205 3.2 11.3 0.00 0.64 0.48 90 1008.6
20260507130026 10 86 0.0 6.4 0.00 0.64 0.48 92 1008.3
20260507124511 10 227 0.0 4.8 0.00 0.64 0.48 93 1008.5
20260507123010 10 284 1.6 4.8 0.00 0.64 0.48 93 1008.6
20260507121511 9 267 1.6 4.8 0.03 0.64 0.48 93 1008.8
20260507120008 9 151 0.0 3.2 0.08 0.64 0.48 93 1008.7
20260507114522 9 153 0.0 1.6 0.10 0.64 0.48 93 1008.2
20260507113014 8 153 0.0 3.2 0.13 0.64 0.48 92 1008.2
20260507111513 8 22 0.0 1.6 0.10 0.61 0.46 92 1008.7
20260507110015 8 219 0.0 3.2 0.05 0.56 0.41 92 1008.2
20260507104505 8 22 0.0 3.2 0.05 0.53 0.38 92 1007.9
20260507103005 8 33 0.0 3.2 0.05 0.51 0.36 92 1007.7
20260507101507 8 16 0.0 3.2 0.05 0.51 0.36 92 1008.0
20260507100007 8 266 0.0 1.6 0.05 0.51 0.36 92 1008.2
20260507094503 9 267 0.0 3.2 0.05 0.48 0.33 92 1007.7
20260507093006 9 20 0.0 3.2 0.05 0.46 0.30 92 1007.8
20260507091513 9 266 0.0 3.2 0.08 0.46 0.30 91 1007.4
20260507090005 9 224 0.0 3.2 0.13 0.46 0.30 91 1007.7
20260507084509 10 360 0.0 3.2 0.20 0.43 0.28 91 1007.2
20260507083008 10 18 0.0 3.2 0.23 0.41 0.25 91 1007.3
20260507081504 10 265 0.0 8.0 0.23 0.38 0.23 90 1007.3
20260507080012 10 32 1.6 11.3 0.18 0.33 0.18 89 1007.7
20260507074513 11 202 1.6 9.7 0.08 0.23 0.08 88 1007.5
20260507073010 12 281 1.6 8.0 0.03 0.18 0.03 89 1006.9
20260507071523 12 236 0.0 4.8 0.00 0.15 0.00 90 1005.9
20260507070009 12 360 1.6 4.8 0.00 0.15 0.00 91 1006.1
20260507064512 13 233 0.0 3.2 0.00 0.15 0.00 92 1006.1
20260507063019 13 139 0.0 3.2 0.00 0.15 0.00 92 1006.2
20260507061508 13 139 0.0 0.0 0.00 0.15 0.00 92 1006.2
20260507060016 13 139 0.0 0.0 0.00 0.15 0.00 92 1006.3
20260507054522 13 138 0.0 3.2 0.00 0.15 0.00 92 1006.6
20260507053012 13 146 0.0 3.2 0.00 0.15 0.00 92 1006.8
20260507051520 13 156 1.6 6.4 0.00 0.15 0.00 92 1007.0
20260507050036 13 171 1.6 3.2 0.00 0.15 0.00 92 1007.0
20260507044516 13 215 1.6 8.0 0.00 0.15 0.00 92 1007.1
20260507043022 13 213 1.6 9.7 0.00 0.15 0.00 92 1007.1
20260507041521 13 183 1.6 6.4 0.00 0.15 0.00 92 1006.7
20260507040019 13 161 1.6 8.0 0.00 0.15 0.00 92 1006.8
20260507034524 13 134 3.2 14.5 0.00 0.15 0.15 92 1006.7
20260507033014 13 163 3.2 11.3 0.00 0.15 0.15 92 1007.1
20260507031522 13 188 3.2 12.9 0.00 0.15 0.15 92 1007.0
20260507030029 13 167 3.2 16.1 0.00 0.15 0.15 92 1006.9
20260507024524 13 188 3.2 12.9 0.00 0.15 0.15 92 1006.9
20260507023026 13 183 4.8 12.9 0.00 0.15 0.15 92 1007.1
20260507021512 13 196 6.4 14.5 0.00 0.15 0.15 92 1006.7
20260507020020 13 170 4.8 12.9 0.00 0.15 0.15 92 1007.0
20260507014515 13 171 1.6 17.7 0.00 0.15 0.15 92 1007.0
20260507013015 13 190 4.8 11.3 0.00 0.15 0.15 92 1007.2
20260507011513 13 179 6.4 16.1 0.00 0.15 0.15 92 1007.3
20260507010020 13 160 6.4 14.5 0.00 0.15 0.15 92 1007.5
20260507004518 13 175 4.8 16.1 0.00 0.15 0.15 92 1007.5
20260507003015 13 194 4.8 20.9 0.00 0.15 0.15 92 1007.4
20260507001518 13 169 4.8 16.1 0.00 0.15 0.15 92 1007.4
20260507000004 12 181 3.2 12.9 0.00 0.15 0.15 91 1007.5
20260506234511 12 169 6.4 16.1 0.00 0.15 0.15 91 1007.4
20260506233023 12 130 6.4 20.9 0.00 0.15 0.15 91 1007.3
20260506231504 12 136 9.7 19.3 0.03 0.15 0.15 91 1007.4
20260506230022 12 127 3.2 24.1 0.03 0.15 0.15 91 1007.5
20260506224521 12 160 8.0 22.5 0.03 0.15 0.15 90 1007.3
20260506223004 13 128 4.8 22.5 0.08 0.15 0.15 90 1007.3
20260506221519 13 201 4.8 20.9 0.05 0.13 0.13 90 1007.4
20260506220006 13 175 4.8 22.5 0.05 0.13 0.13 90 1007.9
20260506214504 13 193 6.4 19.3 0.05 0.13 0.13 89 1007.7
20260506213007 13 165 6.4 25.7 0.00 0.08 0.08 88 1007.8
20260506211503 13 163 8.0 30.6 0.03 0.08 0.08 88 1007.8
20260506210007 13 161 8.0 22.5 0.03 0.08 0.08 88 1008.0
20260506204506 14 208 3.2 17.7 0.03 0.08 0.08 88 1008.3
20260506203009 14 172 8.0 20.9 0.08 0.08 0.08 88 1008.4
20260506201525 14 144 6.4 27.4 0.05 0.05 0.05 88 1008.5
20260506200026 15 206 4.8 19.3 0.05 0.05 0.05 87 1008.6
20260506194512 15 233 6.4 30.6 0.05 0.05 0.05 86 1008.8
20260506193023 16 184 8.0 20.9 0.00 0.00 0.00 81 1008.8
20260506191508 17 209 6.4 22.5 0.00 0.00 0.00 76 1008.9
20260506190025 17 52 9.7 25.7 0.00 0.00 0.00 73 1008.8
20260506184520 17 46 6.4 19.3 0.00 0.00 0.00 73 1008.9
20260506183012 18 37 16.1 29.0 0.00 0.00 0.00 71 1008.9
20260506181519 18 53 1.6 29.0 0.00 0.00 0.00 70 1009.1
20260506180024 18 38 11.3 32.2 0.00 0.00 0.00 69 1009.2
20260506174523 18 32 11.3 30.6 0.00 0.00 0.00 68 1009.4
20260506173024 19 101 14.5 30.6 0.00 0.00 0.00 67 1009.7
20260506171515 19 203 9.7 29.0 0.00 0.00 0.00 68 1009.7
20260506170020 20 209 12.9 29.0 0.00 0.00 0.00 65 1009.6
20260506164525 19 197 14.5 33.8 0.00 0.00 0.00 67 1010.1
20260506163014 18 242 11.3 37.0 0.00 0.00 0.00 69 1010.1
20260506161521 19 171 8.0 25.7 0.00 0.00 0.00 68 1010.1
20260506160028 19 250 8.0 22.5 0.00 0.00 0.00 67 1010.4
20260506154521 19 206 6.4 20.9 0.00 0.00 0.00 69 1010.6
20260506153024 19 208 8.0 29.0 0.00 0.00 0.00 68 1010.8
20260506151530 19 211 12.9 22.5 0.00 0.00 0.00 67 1010.8
20260506150004 18 82 8.0 30.6 0.00 0.00 0.00 70 1011.0
20260506144508 18 91 11.3 25.7 0.00 0.00 0.00 71 1010.9